Weather in Kachalovo

Russia / Ivanovo Oblast     56°56′31″N   41°26′33″E
temp.,
°C
wind,
m/s
gust,
m/s
humid.,
%
clouds,
%
prec.,
mm/h
press.,
hPa
HPBL,
m
25 february, thu
thu2500:00−16s51094100 0.4 1028451
03:00−16s51095100 1.4 1025449
06:00−16s61195100 2.2 1018493
09:00−13s61195100 4.8 1014455
12:00−10sse4694100 2.1 1011334
15:00−7se2294100 2.6 1011226
18:00−7ese2296100 0.3 101151
21:00−7se1296100 0.4 101262
26 february, fri
fri2600:00−5sse1197100 0.4 101150
03:00−4se2298100 0.8 101177
06:00−5ese3597100 0.3 1009112
09:00−4se4698100 1.1 1007140
12:000sse4799100 1.7 1002206
15:00+2ssw410100100 5.8 999342
18:00+2w514100100 3.2 996692
21:00+1w51197100 3.4 996655
27 february, sat
sat2700:000w51098100 0.4 994551
03:000w61197100 1.6 994690
06:00−1nw61295100 0.9 994786
09:00−6nw5994100 1.1 996365
12:00−8n5993100 0.8 999558
15:00−9n6990100 1.3 1003716
18:00−12n51190100 0.1 1006595
21:00−14n51092100 0.1 1010400
28 february, sun
sun2800:00−16n499362 0.0 1011252
03:00−18nnw499432 0.0 1014220
06:00−19nnw38950 0.0 1015177
09:00−18nnw47930 0.0 1017258
12:00−13nnw369051 0.0 1017372
15:00−11nnw479067 0.0 1018465
18:00−13nnw379595 0.0 1019155
21:00−15n339747 0.0 102257
1 march, mon
mon100:00−16nnw229719 0.0 102320
03:00−15nw229756 0.1 102420
06:00−13w129799 0.1 102420
09:00−9sw239699 0.1 1025110
12:00−3wsw359487 0.1 1024435
15:00−2w479293 0.1 1022565
18:00−2wsw5109499 0.1 1020498
21:000w5139199 0.1 1018716